Location: Recife
(8.0585°S, 34.8848°W)
Time: 14:53:28
(UTC-03:00)

Tiros 1 despin weight - Pass Details

Date: 20 April 2026
Orbit: 555 x 591 km, 48.2° (Epoch: 14 May)

Event Time Altitude Azimuth Distance (km) Brightness Sun altitude
Rises 22:01:53 0° 355° (N) 2,797 - -70.8°
Reaches altitude 10° 22:05:10 10° 21° (NNE) 1,904 - -71.6°
Maximum altitude 22:07:25 14° 52° (NE) 1,669 - -72.1°
Drops below altitude 10° 22:09:41 10° 83° (E) 1,912 - -72.7°
Sets 22:12:58 0° 109° (ESE) 2,815 - -73.5°
